Location: Unspecified
(0.0000°N, 0.0000°E)
Time: 04:43:45
(UTC+00:00)

N. Korean satellite - Pass Details

Date: 16 January 2017
Orbit: 460 x 518 km, 97.2° (Epoch: 22 July)

Event Time Altitude Azimuth Distance (km) Brightness Sun altitude
Rises 18:35:31 0° 161° (SSE) 2,484 10.2 -6.0°
Reaches altitude 10° 18:37:36 10° 155° (SSE) 1,605 9.2 -6.5°
Maximum altitude 18:40:56 49° 79° (E) 599 6.6 -7.2°
Drops below altitude 10° 18:44:16 10° 3° (N) 1,600 9.0 -8.0°
Sets 18:46:20 0° 358° (N) 2,476 10.0 -8.5°
